period_start,C,m1,H,J0,J1,J2,J3,J4,J5,JA,JB,JC,JD,JJ,JK,JN,#
2014-12-06 00:01:22,0.11,2.90,0.00,19.31,23.97,27.28,5.01,27.39,1036.03,2042.98,2390.40,2593.02,2815.54,350.28,358.98,12.25,0000 0000 0000 0000 000000
2014-12-06 00:06:24,0.11,2.91,0.00,19.33,23.97,27.26,4.94,27.26,1035.89,2042.97,2389.50,2592.32,2814.81,350.49,359.09,12.27,0000 0000 0000 0000 000000
2014-12-06 00:11:25,0.09,2.91,0.00,19.32,23.97,27.23,4.90,27.29,1035.83,2042.98,2388.65,2591.78,2813.98,349.68,358.37,12.30,0000 0000 0000 0000 000000
2014-12-06 00:16:27,0.11,2.91,0.00,19.22,23.97,27.26,4.95,27.29,1035.75,2042.97,2387.69,2591.01,2813.12,350.06,358.89,12.33,0000 0000 0000 0000 000000
2014-12-06 00:21:28,0.13,2.92,0.00,19.28,23.95,27.26,4.97,27.42,1035.69,2042.98,2386.72,2590.22,2812.40,350.40,359.08,12.36,0000 0000 0000 0000 000000
2014-12-06 00:26:29,0.08,2.92,0.00,19.29,23.95,27.25,4.92,27.31,1035.69,2042.99,2385.65,2589.73,2811.89,349.88,358.88,12.39,0000 0000 0000 0000 000000
2014-12-06 00:31:30,0.10,2.92,0.00,19.30,23.95,27.27,4.86,27.25,1035.66,2042.99,2384.66,2589.02,2811.06,349.22,357.84,12.42,0000 0000 0000 0000 000000
2014-12-06 00:36:32,0.11,2.93,0.00,19.22,23.95,27.23,4.95,27.57,1035.66,2042.99,2383.85,2588.27,2810.15,349.69,358.47,12.45,0000 0000 0000 0000 000000
2014-12-06 00:41:33,0.15,2.93,0.00,19.27,23.93,27.21,4.94,27.35,1035.66,2042.98,2382.68,2587.52,2809.23,349.74,358.46,12.48,0000 0000 0000 0000 000000
2014-12-06 00:46:34,0.10,2.93,0.00,19.29,23.93,27.24,4.90,27.30,1035.66,2042.99,2381.58,2586.92,2808.60,349.43,358.03,12.51,0000 0000 0000 0000 000000
2014-12-06 00:51:36,0.12,2.94,0.00,19.26,23.92,27.22,4.96,27.43,1035.65,2042.99,2380.48,2586.08,2807.86,349.68,358.39,12.54,0000 0000 0000 0000 000000
2014-12-06 00:56:37,0.13,2.94,0.00,19.11,23.92,27.20,5.00,27.49,1035.65,2042.99,2379.50,2585.33,2807.04,350.41,359.26,12.57,0000 0000 0000 0000 000000
2014-12-06 01:01:38,0.13,2.95,0.00,19.21,23.92,27.18,4.96,27.26,1035.64,2042.99,2378.44,2584.61,2806.15,350.11,358.84,12.60,0000 0000 0000 0000 000000
2014-12-06 01:06:39,0.10,2.95,0.00,19.24,23.92,27.19,4.97,27.31,1035.55,2042.99,2377.34,2583.87,2805.40,350.03,358.65,12.63,0000 0000 0000 0000 000000
2014-12-06 01:11:41,0.13,2.95,0.00,19.26,23.92,27.22,4.94,27.27,1035.56,2042.99,2376.28,2583.04,2804.56,350.06,358.53,12.66,0000 0000 0000 0000 000000
2014-12-06 01:16:42,0.11,2.96,0.00,19.16,23.92,27.18,4.93,27.31,1035.52,2042.99,2375.24,2582.28,2803.84,349.93,358.53,12.68,0000 0000 0000 0000 000000
2014-12-06 01:21:43,0.12,2.96,0.00,19.22,23.90,27.20,4.93,27.40,1035.64,2042.99,2374.20,2581.61,2803.03,349.84,358.41,12.71,0000 0000 0000 0000 000000
2014-12-06 01:26:45,0.10,2.96,0.00,19.26,23.90,27.17,5.00,27.51,1035.59,2042.99,2373.21,2580.95,2802.12,349.59,358.48,12.74,0000 0000 0000 0000 000000
2014-12-06 01:31:46,0.14,2.97,0.00,19.23,23.90,27.19,4.95,27.35,1035.65,2042.99,2372.22,2580.10,2801.30,350.09,358.73,12.77,0000 0000 0000 0000 000000
2014-12-06 01:36:48,0.13,2.97,0.00,19.08,23.90,27.16,5.00,27.50,1035.54,2042.99,2371.16,2579.27,2800.42,349.87,358.77,12.80,0000 0000 0000 0000 000000
2014-12-06 01:41:49,0.10,2.97,0.00,19.20,23.90,27.18,4.95,27.44,1035.42,2042.99,2370.20,2578.72,2799.68,349.91,358.54,12.83,0000 0000 0000 0000 000000
2014-12-06 01:46:51,0.09,2.98,0.00,19.24,23.90,27.19,4.97,27.37,1035.26,2042.99,2369.27,2578.02,2798.98,350.02,358.52,12.86,0000 0000 0000 0000 000000
2014-12-06 01:51:52,0.14,2.98,0.00,19.20,23.90,27.18,5.01,27.41,1035.39,2042.99,2368.27,2577.27,2798.15,350.47,359.31,12.89,0000 0000 0000 0000 000000
2014-12-06 01:56:53,0.11,2.98,0.00,19.12,23.89,27.16,4.94,27.50,1035.31,2042.99,2367.21,2576.70,2797.50,349.46,358.23,12.92,0000 0000 0000 0000 000000
2014-12-06 02:01:54,0.08,2.99,0.00,19.20,23.88,27.18,4.91,27.28,1035.28,2042.99,2366.36,2575.98,2796.87,349.67,358.42,12.95,0000 0000 0000 0000 000000
2014-12-06 02:06:56,0.12,2.99,0.00,19.23,23.87,27.19,4.99,27.38,1035.25,2043.01,2365.58,2575.19,2796.00,349.68,358.18,12.98,0000 0000 0000 0000 000000
2014-12-06 02:11:57,0.08,2.99,0.00,19.19,23.87,27.17,4.96,27.32,1035.18,2043.01,2364.78,2574.78,2795.13,350.07,358.84,13.01,0000 0000 0000 0000 000000
2014-12-06 02:16:58,0.11,3.00,0.00,19.15,23.87,27.20,4.89,27.32,1035.18,2043.00,2363.85,2574.04,2794.55,350.01,358.73,13.04,0000 0000 0000 0000 000000
2014-12-06 02:21:59,0.08,3.00,0.00,19.20,23.87,27.15,4.92,27.32,1035.18,2043.01,2362.99,2573.60,2793.97,349.57,358.14,13.07,0000 0000 0000 0000 000000
2014-12-06 02:27:01,0.10,3.00,0.00,19.19,23.87,27.17,4.92,27.32,1035.17,2043.01,2362.07,2573.01,2793.13,349.81,358.48,13.09,0000 0000 0000 0000 000000
2014-12-06 02:32:02,0.12,3.01,0.00,19.09,23.85,27.13,4.98,27.34,1035.17,2043.01,2361.16,2572.35,2792.62,350.49,359.24,13.12,0000 0000 0000 0000 000000
2014-12-06 02:37:03,0.06,3.01,0.00,19.11,23.85,27.14,4.93,27.43,1035.17,2043.01,2360.41,2571.94,2791.97,350.55,359.30,13.15,0000 0000 0000 0000 000000
2014-12-06 02:42:04,0.14,3.01,0.00,19.16,23.85,27.12,4.95,27.41,1035.17,2043.01,2359.36,2571.11,2791.15,350.36,358.91,13.18,0000 0000 0000 0000 000000
2014-12-06 02:47:05,0.10,3.01,0.00,19.18,23.84,27.11,4.87,27.41,1035.17,2043.01,2358.51,2570.68,2790.65,349.61,358.21,13.21,0000 0000 0000 0000 000000
2014-12-06 02:52:07,0.08,3.02,0.00,19.06,23.83,27.14,4.96,27.48,1035.17,2043.00,2357.51,2570.01,2789.98,349.89,358.67,13.24,0000 0000 0000 0000 000000
2014-12-06 02:57:07,0.11,3.02,0.00,19.08,23.82,27.11,4.98,27.32,1035.17,2043.02,2356.80,2569.39,2789.16,350.24,359.08,13.27,0000 0000 0000 0000 000000
2014-12-06 03:02:09,0.07,3.02,0.00,19.15,23.82,27.08,4.91,27.34,1035.17,2043.02,2355.91,2568.94,2788.72,349.61,358.44,13.30,0000 0000 0000 0000 000000
2014-12-06 03:07:10,0.11,3.03,0.00,19.14,23.82,27.10,4.94,27.38,1035.17,2043.02,2354.96,2568.16,2788.02,349.71,358.58,13.33,0000 0000 0000 0000 000000
2014-12-06 03:12:11,0.11,3.03,0.00,19.04,23.82,27.12,4.95,27.40,1035.17,2043.05,2353.95,2567.77,2787.40,349.91,358.55,13.36,0000 0000 0000 0000 000000
2014-12-06 03:17:12,0.09,3.03,0.00,19.12,23.81,27.10,4.94,27.47,1035.17,2043.09,2353.04,2567.04,2786.94,350.26,359.04,13.39,0000 0000 0000 0000 000000
2014-12-06 03:22:14,0.13,3.04,0.00,19.14,23.80,27.12,4.91,27.41,1035.17,2043.11,2352.11,2566.44,2786.09,350.13,358.91,13.42,0000 0000 0000 0000 000000
2014-12-06 03:27:15,0.11,3.04,0.00,19.12,23.80,27.11,4.98,27.38,1035.16,2043.20,2351.27,2565.94,2785.33,350.11,358.94,13.45,0000 0000 0000 0000 000000
2014-12-06 03:32:17,0.13,3.04,0.00,19.01,23.80,27.10,4.91,27.54,1035.17,2043.34,2350.30,2565.18,2784.68,349.77,358.98,13.48,0000 0000 0000 0000 000000
2014-12-06 03:37:18,0.07,3.05,0.00,19.12,23.80,27.08,4.92,27.42,1035.15,2043.35,2349.67,2564.79,2783.96,349.58,358.30,13.50,0000 0000 0000 0000 000000
2014-12-06 03:42:19,0.12,3.05,0.00,19.14,23.79,27.08,4.95,27.38,1035.02,2043.28,2348.76,2564.04,2783.11,350.06,358.72,13.53,0000 0000 0000 0000 000000
2014-12-06 03:47:21,0.11,3.05,0.00,19.07,23.78,27.07,4.96,27.51,1034.94,2043.33,2347.83,2563.49,2782.46,350.08,358.78,13.56,0000 0000 0000 0000 000000
2014-12-06 03:52:22,0.09,3.06,0.00,19.02,23.77,27.05,4.95,27.22,1034.88,2043.43,2346.93,2562.94,2781.89,349.68,358.58,13.59,0000 0000 0000 0000 000000
2014-12-06 03:57:23,0.11,3.06,0.00,19.12,23.77,27.05,4.96,27.50,1034.79,2043.37,2346.00,2562.12,2781.07,349.84,358.45,13.62,0000 0000 0000 0000 000000
2014-12-06 04:02:24,0.16,3.06,0.00,19.12,23.77,27.08,4.96,27.38,1034.76,2043.55,2345.03,2561.57,2780.30,350.53,359.19,13.65,0000 0000 0000 0000 000000
2014-12-06 04:07:25,0.08,3.07,0.00,19.03,23.77,27.05,5.00,27.37,1034.82,2043.47,2343.96,2560.94,2779.65,350.01,358.70,13.68,0000 0000 0000 0000 000000
2014-12-06 04:12:27,0.11,3.07,0.00,19.07,23.77,27.07,4.92,27.34,1034.76,2043.49,2342.90,2560.12,2778.94,350.10,358.39,13.71,0000 0000 0000 0000 000000
2014-12-06 04:17:28,0.12,3.07,0.00,19.12,23.77,27.04,4.97,27.38,1034.72,2043.31,2341.81,2559.41,2778.09,350.08,358.58,13.74,0000 0000 0000 0000 000000
2014-12-06 04:22:30,0.14,3.08,0.00,19.11,23.77,27.06,4.99,27.24,1034.70,2043.61,2340.93,2558.99,2777.43,349.99,358.85,13.77,0000 0000 0000 0000 000000
2014-12-06 04:27:31,0.12,3.08,0.00,19.05,23.76,27.04,4.94,27.61,1034.70,2043.53,2339.91,2558.31,2776.59,349.56,358.17,13.80,0000 0000 0000 0000 000000
2014-12-06 04:32:32,0.05,3.08,0.00,19.10,23.75,27.01,4.96,27.39,1034.68,2043.40,2338.98,2557.68,2775.95,350.10,358.70,13.83,0000 0000 0000 0000 000000
2014-12-06 04:37:33,0.16,3.09,0.00,19.11,23.75,27.03,4.95,27.38,1034.68,2043.58,2337.98,2556.97,2775.07,350.28,359.09,13.86,0000 0000 0000 0000 000000
2014-12-06 04:42:35,0.11,3.09,0.00,19.06,23.75,27.04,4.96,27.43,1034.68,2043.32,2337.06,2556.11,2774.13,349.88,358.53,13.89,0000 0000 0000 0000 000000
2014-12-06 04:47:36,0.13,3.09,0.00,19.01,23.75,27.03,4.96,27.53,1034.68,2043.54,2336.18,2555.68,2773.42,350.28,358.73,13.92,0000 0000 0000 0000 000000
2014-12-06 04:52:37,0.06,3.10,0.00,19.08,23.75,27.03,4.98,27.36,1034.68,2043.28,2335.03,2554.93,2772.62,350.06,358.56,13.94,0000 0000 0000 0000 000000
2014-12-06 04:57:38,0.12,3.10,0.00,19.08,23.75,27.03,4.97,27.48,1034.68,2043.21,2333.88,2554.10,2771.90,349.55,358.19,13.97,0000 0000 0000 0000 000000
2014-12-06 05:02:40,0.15,3.10,0.00,18.99,23.75,27.04,4.95,27.39,1034.68,2043.24,2332.84,2553.42,2771.07,349.85,358.60,14.00,0000 0000 0000 0000 000000
2014-12-06 05:07:41,0.09,3.11,0.00,19.05,23.75,27.01,4.94,27.33,1034.68,2043.40,2331.98,2552.86,2770.48,350.12,358.81,14.03,0000 0000 0000 0000 000000
2014-12-06 05:12:43,0.15,3.11,0.00,19.08,23.74,27.01,4.96,27.32,1034.68,2043.39,2331.07,2552.08,2769.49,350.38,358.85,14.06,0000 0000 0000 0000 000000
2014-12-06 05:17:44,0.15,3.12,0.00,19.08,23.73,27.01,4.88,27.41,1034.67,2043.65,2330.04,2551.60,2768.89,349.71,358.50,14.09,0000 0000 0000 0000 000000
2014-12-06 05:22:46,0.11,3.12,0.00,18.96,23.72,27.02,4.93,27.40,1034.67,2043.64,2328.83,2550.81,2768.06,349.99,358.44,14.12,0000 0000 0000 0000 000000
2014-12-06 05:27:47,0.10,3.12,0.00,19.06,23.72,27.03,4.93,27.50,1034.68,2043.49,2327.68,2550.02,2767.27,349.79,358.38,14.15,0000 0000 0000 0000 000000
2014-12-06 05:32:48,0.20,3.13,0.00,19.08,23.72,27.00,5.00,27.54,1034.66,2043.68,2326.57,2549.20,2766.55,350.41,359.00,14.18,0000 0000 0000 0000 000000
2014-12-06 05:37:49,0.13,3.13,0.00,19.03,23.72,27.02,4.92,27.35,1034.55,2043.73,2325.52,2548.52,2765.68,349.88,358.39,14.21,0000 0000 0000 0000 000000
2014-12-06 05:42:51,0.11,3.14,0.00,18.92,23.72,27.00,4.92,27.37,1034.29,2043.86,2324.51,2547.91,2764.86,350.42,359.11,14.24,0000 0000 0000 0000 000000
2014-12-06 05:47:52,0.09,3.14,0.00,19.04,23.70,27.00,4.94,27.44,1034.24,2043.76,2323.49,2547.09,2764.02,349.92,358.27,14.27,0000 0000 0000 0000 000000
2014-12-06 05:52:53,0.13,3.14,0.00,19.05,23.70,26.99,4.92,27.49,1034.21,2043.69,2322.48,2546.33,2763.16,349.34,357.81,14.30,0000 0000 0000 0000 000000
2014-12-06 05:57:54,0.13,3.15,0.00,18.93,23.70,26.97,4.97,27.48,1034.21,2043.76,2321.45,2545.73,2762.25,349.96,358.41,14.32,0000 0000 0000 0000 000000
2014-12-06 06:02:56,0.13,3.15,0.00,18.98,23.70,26.99,5.01,27.39,1034.23,2043.80,2320.25,2544.95,2761.48,350.23,358.80,14.35,0000 0000 0000 0000 000000
2014-12-06 06:07:57,0.14,3.16,0.00,19.03,23.70,26.95,4.96,27.43,1034.32,2043.94,2319.07,2544.10,2760.90,350.03,358.76,14.38,0000 0000 0000 0000 000000
2014-12-06 06:12:58,0.13,3.16,0.00,19.01,23.70,26.97,4.97,27.48,1034.34,2043.93,2317.99,2543.46,2760.03,349.78,358.35,14.41,0000 0000 0000 0000 000000
2014-12-06 06:17:59,0.17,3.16,0.00,18.90,23.69,26.99,4.94,27.57,1034.32,2043.94,2316.72,2542.60,2759.05,349.56,358.26,14.44,0000 0000 0000 0000 000000
2014-12-06 06:23:00,0.16,3.17,0.00,19.03,23.68,26.95,4.98,27.38,1034.26,2043.96,2315.33,2541.59,2758.03,350.56,359.03,14.47,0000 0000 0000 0000 000000
2014-12-06 06:28:02,0.13,3.17,0.00,19.03,23.67,26.94,4.98,27.37,1034.22,2043.98,2313.96,2540.80,2757.11,350.07,358.66,14.50,0000 0000 0000 0000 000000
2014-12-06 06:33:03,0.15,3.18,0.00,18.97,23.67,26.98,4.92,27.39,1034.21,2043.99,2312.63,2539.96,2756.17,349.68,358.25,14.53,0000 0000 0000 0000 000000
2014-12-06 06:38:04,0.14,3.18,0.00,18.97,23.67,26.93,4.89,27.38,1034.21,2043.96,2311.61,2539.06,2754.96,349.46,358.12,14.56,0000 0000 0000 0000 000000
2014-12-06 06:43:06,0.13,3.19,0.00,19.03,23.67,26.97,4.99,27.57,1034.20,2043.96,2310.66,2538.14,2754.01,350.21,358.73,14.59,0000 0000 0000 0000 000000
2014-12-06 06:48:07,0.13,3.19,0.00,18.99,23.67,26.97,4.94,27.41,1034.20,2043.94,2309.54,2537.56,2753.19,349.88,358.48,14.62,0000 0000 0000 0000 000000
2014-12-06 06:53:09,0.11,3.19,0.00,18.93,23.67,26.96,4.91,27.46,1034.20,2043.98,2308.34,2536.86,2752.58,349.74,358.27,14.65,0000 0000 0000 0000 000000
2014-12-06 06:58:10,0.12,3.20,0.00,19.01,23.67,26.92,4.94,27.55,1034.20,2043.97,2307.29,2536.05,2751.74,349.61,358.22,14.68,0000 0000 0000 0000 000000
2014-12-06 07:03:11,0.14,3.20,0.00,19.01,23.67,26.95,4.95,27.49,1034.20,2043.98,2305.97,2535.25,2751.02,349.91,358.63,14.71,0000 0000 0000 0000 000000
2014-12-06 07:08:13,0.16,3.21,0.00,18.95,23.67,26.94,4.98,27.54,1034.20,2043.99,2304.70,2534.46,2750.25,350.40,359.01,14.73,0000 0000 0000 0000 000000
2014-12-06 07:13:14,0.13,3.21,0.00,18.95,23.67,26.94,4.93,27.47,1034.19,2043.98,2303.50,2533.72,2749.36,350.19,358.69,14.76,0000 0000 0000 0000 000000
2014-12-06 07:18:15,0.12,3.21,0.00,19.02,23.66,26.95,4.93,27.27,1034.16,2043.98,2302.40,2532.93,2748.41,349.74,358.12,14.79,0000 0000 0000 0000 000000
2014-12-06 07:23:17,0.15,3.22,0.00,19.00,23.66,26.94,4.98,27.47,1034.02,2043.98,2301.07,2532.06,2747.57,349.94,358.48,14.82,0000 0000 0000 0000 000000
2014-12-06 07:28:18,0.15,3.22,0.00,18.89,23.65,26.93,4.88,27.44,1034.16,2043.98,2299.79,2531.18,2746.77,349.91,358.47,14.85,0000 0000 0000 0000 000000
2014-12-06 07:33:19,0.16,3.23,0.00,19.00,23.65,26.97,4.92,27.39,1034.10,2043.99,2298.58,2530.35,2745.78,349.75,358.31,14.88,0000 0000 0000 0000 000000
2014-12-06 07:38:20,0.15,3.23,0.00,19.02,23.65,26.95,4.94,27.43,1034.02,2043.98,2297.36,2529.49,2744.71,349.53,357.96,14.91,0000 0000 0000 0000 000000
2014-12-06 07:43:22,0.10,3.23,0.00,18.94,23.65,26.92,4.93,27.46,1034.03,2043.99,2296.53,2528.81,2743.78,349.96,358.60,14.94,0000 0000 0000 0000 000000
2014-12-06 07:48:23,0.12,3.24,0.00,18.95,23.65,26.90,4.95,27.59,1034.06,2043.99,2295.25,2528.03,2743.01,349.74,358.39,14.97,0000 0000 0000 0000 000000
2014-12-06 07:53:24,0.16,3.24,0.00,19.02,23.65,26.91,4.89,27.46,1034.07,2043.99,2293.86,2527.23,2742.13,349.78,358.25,15.00,0000 0000 0000 0000 000000
2014-12-06 07:58:25,0.16,3.25,0.00,18.98,23.65,26.95,5.03,27.48,1034.09,2043.99,2292.57,2526.30,2741.31,350.18,358.57,15.03,0000 0000 0000 0000 000000
2014-12-06 08:03:26,0.15,3.25,0.00,18.90,23.65,26.93,5.00,27.40,1033.96,2043.99,2291.45,2525.46,2740.26,350.38,358.99,15.06,0000 0000 0000 0000 000000
2014-12-06 08:08:27,0.13,3.26,0.00,18.99,23.65,26.93,5.03,27.55,1034.07,2043.98,2290.27,2524.64,2739.28,349.78,358.44,15.09,0000 0000 0000 0000 000000
2014-12-06 08:13:29,0.11,3.26,0.00,18.99,23.65,26.94,5.01,27.38,1034.03,2043.98,2289.06,2523.95,2738.40,350.34,358.85,15.12,0000 0000 0000 0000 000000
2014-12-06 08:18:30,0.15,3.26,0.00,18.86,23.64,26.93,4.96,27.57,1033.91,2043.98,2287.92,2523.11,2737.52,349.97,358.76,15.15,0000 0000 0000 0000 000000
2014-12-06 08:23:31,0.15,3.27,0.00,18.97,23.63,26.91,4.88,27.22,1033.94,2043.99,2286.73,2522.34,2736.69,349.60,358.05,15.17,0000 0000 0000 0000 000000
2014-12-06 08:28:32,0.13,3.27,0.00,19.00,23.62,26.89,5.01,27.48,1034.01,2043.98,2285.49,2521.56,2735.91,350.42,358.83,15.20,0000 0000 0000 0000 000000
2014-12-06 08:33:34,0.12,3.28,0.00,18.85,23.62,26.94,4.94,27.45,1033.88,2043.99,2284.25,2520.80,2735.04,349.48,358.08,15.23,0000 0000 0000 0000 000000
2014-12-06 08:38:35,0.17,3.28,0.00,18.92,23.62,26.89,4.93,27.43,1033.83,2043.98,2282.77,2519.90,2734.09,349.84,358.13,15.26,0000 0000 0000 0000 000000
2014-12-06 08:43:36,0.15,3.29,0.00,18.97,23.62,26.89,4.96,27.47,1033.84,2043.99,2281.48,2519.04,2733.14,350.27,358.72,15.29,0000 0000 0000 0000 000000
2014-12-06 08:48:38,0.14,3.29,0.00,18.89,23.62,26.89,4.96,27.52,1033.78,2043.99,2280.52,2518.25,2732.29,349.85,358.37,15.32,0000 0000 0000 0000 000000
2014-12-06 08:53:39,0.14,3.29,0.00,18.86,23.61,26.92,4.91,27.61,1033.76,2043.99,2279.36,2517.62,2731.47,350.00,358.53,15.35,0000 0000 0000 0000 000000
2014-12-06 08:58:40,0.10,3.30,0.00,18.93,23.60,26.89,4.98,27.75,1033.74,2043.99,2278.06,2516.91,2730.66,350.03,358.70,15.38,0000 0000 0000 0000 000000
2014-12-06 09:03:41,0.15,3.30,0.00,18.92,23.60,26.91,4.98,27.57,1033.79,2043.99,2276.84,2516.06,2729.84,349.74,358.24,15.41,0000 0000 0000 0000 000000
2014-12-06 09:08:43,0.15,3.31,0.00,18.84,23.60,26.87,4.97,27.58,1033.82,2043.99,2275.51,2515.18,2728.98,349.57,358.17,15.44,0000 0000 0000 0000 000000
2014-12-06 09:13:44,0.15,3.31,0.00,18.93,23.60,26.88,4.97,27.56,1033.82,2043.99,2274.24,2514.41,2728.08,349.89,358.03,15.47,0000 0000 0000 0000 000000
2014-12-06 09:18:45,0.15,3.32,0.00,18.92,23.59,26.89,5.01,27.58,1033.74,2043.99,2272.92,2513.62,2727.14,349.89,358.45,15.50,0000 0000 0000 0000 000000
2014-12-06 09:23:47,0.13,3.32,0.00,18.82,23.58,26.89,5.03,27.73,1033.73,2043.99,2271.69,2512.83,2726.29,350.22,358.55,15.53,0000 0000 0000 0000 000000
2014-12-06 09:28:48,0.14,3.32,0.00,18.90,23.57,26.87,4.93,27.57,1033.72,2044.00,2270.45,2511.98,2725.33,349.83,358.41,15.55,0000 0000 0000 0000 000000
2014-12-06 09:33:49,0.16,3.33,0.00,18.93,23.57,26.87,4.97,27.52,1033.72,2044.00,2268.96,2511.07,2724.40,350.20,358.70,15.58,0000 0000 0000 0000 000000
2014-12-06 09:38:51,0.26,3.33,0.00,18.85,23.57,26.87,4.98,27.57,1033.73,2044.00,2267.10,2509.82,2723.24,349.77,358.33,15.61,0000 0000 0000 0000 000000
2014-12-06 09:43:52,0.29,3.34,0.00,18.87,23.57,26.85,4.94,27.57,1033.72,2044.00,2264.87,2508.10,2721.37,350.09,358.80,15.64,0000 0000 0000 0000 000000
2014-12-06 09:48:53,0.35,3.35,0.00,18.92,23.57,26.83,4.98,27.67,1033.72,2044.00,2262.35,2506.00,2719.12,350.16,358.58,15.67,0000 0000 0000 0000 000000
2014-12-06 09:53:54,0.30,3.36,0.00,18.86,23.57,26.86,5.02,27.70,1033.73,2044.00,2260.01,2504.10,2716.97,350.18,358.65,15.70,0000 0000 0000 0000 000000
2014-12-06 09:58:56,0.29,3.37,0.00,18.79,23.56,26.85,5.02,27.72,1033.76,2044.01,2257.76,2502.35,2715.15,350.12,358.70,15.73,0000 0000 0000 0000 000000
2014-12-06 10:03:57,0.27,3.38,0.00,18.90,23.56,26.86,4.92,27.68,1033.77,2044.01,2255.73,2500.66,2713.32,349.86,358.41,15.76,0000 0000 0000 0000 000000
2014-12-06 10:08:58,0.23,3.39,0.00,18.90,23.55,26.83,5.05,27.71,1033.78,2044.00,2253.95,2499.29,2711.70,350.47,359.00,15.79,0000 0000 0000 0000 000000
2014-12-06 10:13:59,0.30,3.40,0.00,18.79,23.55,26.82,5.00,27.57,1033.87,2044.01,2251.68,2497.56,2709.89,350.43,359.04,15.82,0000 0000 0000 0000 000000
2014-12-06 10:19:01,0.29,3.40,0.00,18.88,23.55,26.81,4.97,27.59,1033.83,2044.00,2249.46,2495.84,2708.06,350.10,358.79,15.85,0000 0000 0000 0000 000000
2014-12-06 10:24:02,0.24,3.41,0.00,18.91,23.55,26.83,4.94,27.63,1033.77,2044.00,2247.43,2494.47,2706.41,350.46,359.02,15.88,0000 0000 0000 0000 000000
2014-12-06 10:29:04,0.29,3.42,0.00,18.86,23.55,26.83,5.04,27.73,1033.81,2044.01,2245.29,2492.88,2704.79,350.87,359.27,15.91,0000 0000 0000 0000 000000
2014-12-06 10:34:05,0.22,3.43,0.00,18.89,23.55,26.82,4.92,27.63,1033.72,2044.00,2243.46,2491.44,2703.18,349.23,357.80,15.94,0000 0000 0000 0000 000000
2014-12-06 10:39:06,0.19,3.43,0.00,18.93,23.55,26.83,4.93,27.63,1033.74,2044.00,2241.99,2490.34,2701.83,350.01,358.29,15.96,0000 0000 0000 0000 000000
2014-12-06 10:44:08,0.16,3.44,0.00,18.79,23.54,26.86,4.89,27.68,1033.74,2044.00,2240.67,2489.45,2700.79,349.87,358.45,15.99,0000 0000 0000 0000 000000
2014-12-06 10:49:09,0.15,3.44,0.00,18.84,23.54,26.83,5.02,27.72,1033.73,2044.01,2239.36,2488.53,2699.89,350.54,358.90,16.02,0000 0000 0000 0000 000000
2014-12-06 10:54:10,0.16,3.45,0.00,18.89,23.53,26.82,4.87,27.69,1033.76,2044.00,2238.00,2487.60,2698.95,350.15,358.67,16.05,0000 0000 0000 0000 000000
2014-12-06 10:59:12,0.14,3.45,0.00,18.78,23.52,26.83,4.90,27.72,1033.76,2044.01,2236.78,2486.74,2697.96,349.47,358.21,16.08,0000 0000 0000 0000 000000
2014-12-06 11:04:13,0.17,3.46,0.00,18.77,23.52,26.83,5.01,27.60,1033.76,2044.02,2235.67,2485.82,2696.82,350.11,358.77,16.11,0000 0000 0000 0000 000000
2014-12-06 11:09:15,0.22,3.46,0.00,18.84,23.52,26.82,5.04,27.75,1033.73,2044.04,2234.08,2484.69,2695.56,350.35,358.96,16.14,0000 0000 0000 0000 000000
2014-12-06 11:14:16,0.30,3.47,0.00,18.83,23.52,26.84,4.96,27.64,1033.71,2044.01,2231.79,2482.98,2693.80,349.85,358.19,16.17,0000 0000 0000 0000 000000
2014-12-06 11:19:17,0.27,3.48,0.00,18.76,23.51,26.82,4.93,27.69,1033.71,2044.03,2229.58,2481.35,2692.10,350.18,358.90,16.20,0000 0000 0000 0000 000000
2014-12-06 11:24:18,0.33,3.49,0.00,18.83,23.50,26.81,4.99,27.73,1033.67,2044.05,2227.27,2479.64,2690.22,351.04,359.64,16.23,0000 0000 0000 0000 000000
2014-12-06 11:29:20,0.27,3.50,0.00,18.84,23.50,26.79,4.87,27.52,1033.56,2044.03,2225.08,2477.94,2688.40,349.47,357.99,16.26,0000 0000 0000 0000 000000
2014-12-06 11:34:21,0.38,3.51,0.00,18.67,23.50,26.80,4.93,27.80,1033.56,2044.04,2222.63,2476.01,2686.27,350.04,358.62,16.29,0000 0000 0000 0000 000000
2014-12-06 11:39:22,0.38,3.52,0.00,18.78,23.50,26.80,5.03,27.76,1033.50,2044.03,2219.50,2473.68,2683.80,350.09,358.62,16.32,0000 0000 0000 0000 000000
2014-12-06 11:44:24,0.29,3.53,0.00,18.85,23.50,26.76,4.95,27.51,1033.35,2044.05,2217.19,2472.00,2682.03,349.90,358.17,16.35,0000 0000 0000 0000 000000
2014-12-06 11:49:25,0.44,3.54,0.00,18.77,23.49,26.80,4.93,27.73,1033.27,2044.03,2214.32,2469.60,2679.44,349.54,358.10,16.38,0000 0000 0000 0000 000000
2014-12-06 11:54:26,0.33,3.55,0.00,18.76,23.48,26.76,4.93,27.70,1033.24,2044.03,2211.52,2467.41,2676.92,349.61,357.89,16.40,0000 0000 0000 0000 000000
2014-12-06 11:59:27,0.24,3.56,0.00,18.83,23.47,26.79,4.93,27.65,1033.22,2044.04,2209.62,2466.01,2675.48,350.04,358.49,16.43,0000 0000 0000 0000 000000
2014-12-06 12:04:28,0.26,3.57,0.00,18.80,23.47,26.81,4.99,27.59,1033.22,2044.03,2207.82,2464.63,2673.86,350.57,358.81,16.46,0000 0000 0000 0000 000000
2014-12-06 12:09:30,0.27,3.58,0.00,18.75,23.47,26.74,4.92,27.67,1033.22,2044.02,2205.64,2463.05,2672.20,349.19,357.75,16.49,0000 0000 0000 0000 000000
2014-12-06 12:14:31,0.27,3.58,0.00,18.82,23.47,26.77,5.00,27.73,1033.21,2044.02,2203.57,2461.56,2670.57,350.03,358.24,16.52,0000 0000 0000 0000 000000
2014-12-06 12:19:32,0.24,3.59,0.00,18.79,23.47,26.80,4.96,27.62,1033.08,2044.05,2201.53,2460.16,2669.04,349.71,358.30,16.55,0000 0000 0000 0000 000000
2014-12-06 12:24:33,0.27,3.60,0.00,18.65,23.47,26.77,5.06,27.85,1032.83,2044.03,2199.66,2458.65,2667.41,350.73,359.24,16.58,0000 0000 0000 0000 000000
2014-12-06 12:29:35,0.21,3.61,0.00,18.77,23.47,26.73,5.02,27.88,1032.75,2044.04,2197.98,2457.47,2666.04,350.35,358.79,16.61,0000 0000 0000 0000 000000
2014-12-06 12:34:36,0.21,3.61,0.00,18.79,23.45,26.75,5.05,27.77,1032.75,2044.03,2196.19,2456.27,2664.80,350.71,358.99,16.64,0000 0000 0000 0000 000000
2014-12-06 12:39:37,0.26,3.62,0.00,18.68,23.45,26.73,5.01,27.88,1032.75,2044.05,2194.19,2454.87,2663.45,350.28,358.88,16.67,0000 0000 0000 0000 000000
2014-12-06 12:44:38,0.31,3.63,0.00,18.75,23.45,26.70,4.90,27.57,1032.75,2044.06,2191.97,2453.27,2661.66,349.99,358.31,16.70,0000 0000 0000 0000 000000
2014-12-06 12:49:40,0.33,3.64,0.00,18.80,23.45,26.72,4.91,27.77,1032.74,2044.07,2189.48,2451.34,2659.61,350.08,358.33,16.73,0000 0000 0000 0000 000000
2014-12-06 12:54:41,0.30,3.65,0.00,18.75,23.45,26.73,5.00,27.72,1032.73,2044.04,2187.26,2449.66,2657.74,350.62,358.81,16.76,0000 0000 0000 0000 000000
2014-12-06 12:59:43,0.29,3.66,0.00,18.77,23.45,26.74,5.06,27.78,1032.75,2044.08,2185.12,2448.03,2655.97,349.79,358.18,16.78,0000 0000 0000 0000 000000